Tracking 21970 objects as of 25-Nov-2020
HD Live streaming from Space Station
objects crossing your sky now

IRIDIUM 33 DEB

Track IRIDIUM 33 DEB now!
10-day predictions


NORAD ID: 35846
Int'l Code: 1997-051SW
Perigee: 766.9 km
Apogee: 796.2 km
Inclination: 86.4 °
Period: 100.3 minutes
Semi major axis: 7152 km
RCS: 0.0007 m2 (small)
Launch date: September 14, 1997
Source: United States (US)
Launch site: TYURATAM MISSILE AND SPACE COMPLEX (TTMTR)

Note: This is SATELLITE DEBRIS
aabbcc
Your satellite tracking list
Your tracking list is empty




NASA's NSSDC Master Catalog

Two Line Element Set (TLE):
1 35846U 97051SW  20329.17578489 +.00000473 +00000-0 +15824-3 0  9990
2 35846 086.3771 118.3995 0020526 105.0012 255.3458 14.35193900448238
Source of the keplerian elements: AFSPC